Meteo pe oră la Chişinău

Astăzi, 12 Mai, Miercuri

Timp Temperatura Precipitaţii Vânt Presiune Umiditate
00:00 +14°C° 0 mm 1 m/s 752 mmHg 84%
01:00 +14°C° 0 mm 1 m/s 751 mmHg 87%
02:00 +13°C° 0 mm 1 m/s 751 mmHg 90%
03:00 +13°C° 0 mm 1 m/s 751 mmHg 92%
04:00 +13°C° 0 mm 1 m/s 751 mmHg 93%
05:00 +12°C° 0 mm 1 m/s 751 mmHg 94%
06:00 +11°C° 0.1 mm 3 m/s 751 mmHg 90%
07:00 +11°C° 0.1 mm 4 m/s 751 mmHg 86%
08:00 +10°C° 0.1 mm 6 m/s 751 mmHg 82%
09:00 +10°C° 0.5 mm 5 m/s 751 mmHg 84%
10:00 +10°C° 0.5 mm 4 m/s 751 mmHg 85%
11:00 +10°C° 0.5 mm 3 m/s 751 mmHg 87%
12:00 +10°C° 0.1 mm 3 m/s 751 mmHg 84%
13:00 +12°C° 0.1 mm 2 m/s 751 mmHg 82%
14:00 +12°C° 0.1 mm 2 m/s 751 mmHg 79%
15:00 +12°C° 0 mm 2 m/s 751 mmHg 78%
16:00 +13°C° 0 mm 2 m/s 751 mmHg 76%
17:00 +13°C° 0 mm 1 m/s 750 mmHg 75%
18:00 +12°C° 0 mm 1 m/s 750 mmHg 78%
19:00 +12°C° 0 mm 1 m/s 750 mmHg 82%
20:00 +11°C° 0 mm 1 m/s 750 mmHg 85%
21:00 +11°C° 0.1 mm 1 m/s 750 mmHg 86%
22:00 +11°C° 0.1 mm 1 m/s 750 mmHg 87%
23:00 +11°C° 0.1 mm 1 m/s 750 mmHg 88%

Mâine, 13 Mai, Joi

Timp Temperatura Precipitaţii Vânt Presiune Umiditate
00:00 +10°C° 0.5 mm 1 m/s 750 mmHg 89%
01:00 +9°C° 0.5 mm 2 m/s 749 mmHg 91%
02:00 +9°C° 0.5 mm 2 m/s 749 mmHg 93%
03:00 +9°C° 0.1 mm 2 m/s 749 mmHg 92%
04:00 +9°C° 0.1 mm 2 m/s 749 mmHg 92%
05:00 +9°C° 0.1 mm 3 m/s 749 mmHg 91%
06:00 +10°C° 0 mm 4 m/s 749 mmHg 85%
07:00 +10°C° 0 mm 5 m/s 748 mmHg 79%
08:00 +11°C° 0 mm 6 m/s 748 mmHg 73%
09:00 +14°C° 0 mm 6 m/s 748 mmHg 68%
10:00 +15°C° 0 mm 7 m/s 748 mmHg 64%
11:00 +17°C° 0 mm 7 m/s 748 mmHg 60%
12:00 +16°C° 0.4 mm 6 m/s 748 mmHg 68%
13:00 +14°C° 0.4 mm 6 m/s 748 mmHg 76%
14:00 +13°C° 0.4 mm 5 m/s 747 mmHg 85%
15:00 +14°C° 0 mm 6 m/s 747 mmHg 79%
16:00 +15°C° 0 mm 6 m/s 747 mmHg 73%
17:00 +16°C° 0 mm 6 m/s 746 mmHg 67%
18:00 +15°C° 0 mm 6 m/s 746 mmHg 69%
19:00 +14°C° 0 mm 6 m/s 746 mmHg 71%
20:00 +13°C° 0 mm 5 m/s 746 mmHg 73%
21:00 +12°C° 0 mm 5 m/s 746 mmHg 75%
22:00 +11°C° 0 mm 4 m/s 746 mmHg 78%
23:00 +11°C° 0 mm 3 m/s 746 mmHg 80%

Poimâine, 14 Mai, Vineri

Timp Temperatura Precipitaţii Vânt Presiune Umiditate
00:00 +10°C° 0 mm 3 m/s 746 mmHg 84%
01:00 +10°C° 0 mm 3 m/s 746 mmHg 87%
02:00 +9°C° 0 mm 2 m/s 746 mmHg 90%
03:00 +9°C° 0 mm 2 m/s 746 mmHg 91%
04:00 +10°C° 0 mm 2 m/s 746 mmHg 91%
05:00 +11°C° 0 mm 1 m/s 746 mmHg 91%
06:00 +12°C° 0.5 mm 1 m/s 746 mmHg 91%
07:00 +12°C° 0.5 mm 1 m/s 747 mmHg 91%
08:00 +13°C° 0.5 mm 1 m/s 747 mmHg 90%
09:00 +14°C° 0.1 mm 1 m/s 747 mmHg 87%
10:00 +15°C° 0.1 mm 1 m/s 747 mmHg 83%
11:00 +16°C° 0.1 mm 1 m/s 747 mmHg 80%
12:00 +18°C° 0.1 mm 1 m/s 747 mmHg 73%
13:00 +20°C° 0.1 mm 1 m/s 747 mmHg 65%
14:00 +21°C° 0.1 mm 1 m/s 747 mmHg 58%
15:00 +21°C° 0.4 mm 1 m/s 747 mmHg 62%
16:00 +20°C° 0.4 mm 1 m/s 747 mmHg 65%
17:00 +20°C° 0.4 mm 1 m/s 747 mmHg 69%
18:00 +18°C° 0.4 mm 1 m/s 747 mmHg 74%
19:00 +16°C° 0.4 mm 1 m/s 747 mmHg 79%
20:00 +15°C° 0.4 mm 1 m/s 747 mmHg 85%
21:00 +15°C° 0.2 mm 1 m/s 748 mmHg 86%
22:00 +14°C° 0.2 mm 1 m/s 748 mmHg 87%
23:00 +14°C° 0.2 mm 1 m/s 748 mmHg 89%

15 Mai, Sâmbătă

Timp Temperatura Precipitaţii Vânt Presiune Umiditate
00:00 +13°C° 0 mm 1 m/s 748 mmHg 89%
01:00 +13°C° 0 mm 1 m/s 749 mmHg 89%
02:00 +13°C° 0 mm 1 m/s 749 mmHg 89%
03:00 +12°C° 0 mm 1 m/s 749 mmHg 89%
04:00 +12°C° 0 mm 1 m/s 749 mmHg 90%
05:00 +12°C° 0 mm 1 m/s 749 mmHg 90%
06:00 +14°C° 0 mm 1 m/s 750 mmHg 84%
07:00 +15°C° 0 mm 1 m/s 750 mmHg 78%
08:00 +16°C° 0 mm 0 m/s 750 mmHg 72%
09:00 +20°C° 0 mm 1 m/s 750 mmHg 66%
10:00 +21°C° 0 mm 1 m/s 750 mmHg 60%
11:00 +22°C° 0 mm 1 m/s 750 mmHg 54%
12:00 +23°C° 0.1 mm 1 m/s 750 mmHg 51%
13:00 +24°C° 0.1 mm 2 m/s 749 mmHg 48%
14:00 +24°C° 0.1 mm 2 m/s 749 mmHg 45%
15:00 +24°C° 0 mm 2 m/s 749 mmHg 50%
16:00 +23°C° 0 mm 2 m/s 749 mmHg 54%
17:00 +21°C° 0 mm 2 m/s 748 mmHg 58%
18:00 +20°C° 0 mm 3 m/s 748 mmHg 64%
19:00 +19°C° 0 mm 3 m/s 748 mmHg 69%
20:00 +17°C° 0 mm 3 m/s 748 mmHg 74%
21:00 +17°C° 0 mm 3 m/s 748 mmHg 77%
22:00 +16°C° 0 mm 2 m/s 748 mmHg 80%
23:00 +15°C° 0 mm 2 m/s 748 mmHg 83%

16 Mai, Duminică

Timp Temperatura Precipitaţii Vânt Presiune Umiditate
00:00 +15°C° 0 mm 2 m/s 748 mmHg 84%
01:00 +14°C° 0 mm 2 m/s 748 mmHg 85%
02:00 +14°C° 0 mm 2 m/s 748 mmHg 87%
03:00 +14°C° 0 mm 2 m/s 748 mmHg 87%
04:00 +14°C° 0 mm 2 m/s 747 mmHg 87%
05:00 +14°C° 0 mm 2 m/s 747 mmHg 87%
06:00 +15°C° 0 mm 2 m/s 747 mmHg 81%
07:00 +16°C° 0 mm 3 m/s 747 mmHg 76%
08:00 +18°C° 0 mm 4 m/s 747 mmHg 71%
09:00 +19°C° 0 mm 5 m/s 747 mmHg 67%
10:00 +20°C° 0 mm 5 m/s 747 mmHg 64%
11:00 +21°C° 0 mm 5 m/s 747 mmHg 61%
12:00 +20°C° 0.1 mm 5 m/s 747 mmHg 65%
13:00 +19°C° 0.1 mm 5 m/s 746 mmHg 69%
14:00 +17°C° 0.1 mm 5 m/s 746 mmHg 74%
15:00 +18°C° 0.2 mm 4 m/s 746 mmHg 76%
16:00 +18°C° 0.2 mm 3 m/s 745 mmHg 78%
17:00 +18°C° 0.2 mm 2 m/s 745 mmHg 80%
18:00 +17°C° 0.3 mm 2 m/s 745 mmHg 83%
19:00 +16°C° 0.3 mm 2 m/s 744 mmHg 86%
20:00 +16°C° 0.3 mm 2 m/s 744 mmHg 89%
21:00 +15°C° 0.1 mm 2 m/s 744 mmHg 89%
22:00 +15°C° 0.1 mm 2 m/s 744 mmHg 90%
23:00 +15°C° 0.1 mm 2 m/s 744 mmHg 90%

17 Mai, Luni

Timp Temperatura Precipitaţii Vânt Presiune Umiditate
00:00 +15°C° 0 mm 2 m/s 743 mmHg 90%
01:00 +15°C° 0 mm 2 m/s 743 mmHg 91%
02:00 +14°C° 0 mm 2 m/s 743 mmHg 91%
03:00 +14°C° 0 mm 2 m/s 743 mmHg 92%
04:00 +14°C° 0 mm 2 m/s 743 mmHg 93%
05:00 +14°C° 0 mm 2 m/s 743 mmHg 94%
06:00 +14°C° 0 mm 3 m/s 743 mmHg 90%
07:00 +16°C° 0 mm 3 m/s 743 mmHg 85%
08:00 +18°C° 0 mm 4 m/s 743 mmHg 81%
09:00 +19°C° 0 mm 4 m/s 743 mmHg 77%
10:00 +20°C° 0 mm 5 m/s 743 mmHg 73%
11:00 +21°C° 0 mm 5 m/s 743 mmHg 68%
12:00 +21°C° 0.2 mm 6 m/s 743 mmHg 68%
13:00 +21°C° 0.2 mm 6 m/s 743 mmHg 68%
14:00 +21°C° 0.2 mm 6 m/s 743 mmHg 68%
15:00 +21°C° 0.6 mm 7 m/s 743 mmHg 72%
16:00 +20°C° 0.6 mm 7 m/s 743 mmHg 75%
17:00 +18°C° 0.6 mm 7 m/s 743 mmHg 78%
18:00 +17°C° 0.8 mm 7 m/s 743 mmHg 80%
19:00 +16°C° 0.8 mm 8 m/s 743 mmHg 83%
20:00 +15°C° 0.8 mm 8 m/s 744 mmHg 86%
21:00 +15°C° 0.3 mm 8 m/s 744 mmHg 87%
22:00 +13°C° 0.3 mm 8 m/s 744 mmHg 88%
23:00 +13°C° 0.3 mm 8 m/s 744 mmHg 89%
Arată mai mult